Starlink 30443

operational
NORAD ID: 57894 Int'l Des: 2023-146 Owner: SPXS Country: US Constellation: starlink
LEOCIRCULAR

About Starlink 30443

Description loading...

Live Position

Loading 3D Globe...

Upcoming Passes

Altitude History

Altitude vs Time

uPlot chart will show altitude changes over time

Two-Line Element Set

1 57894U 23146D 26035.57645982 .00000746 00000-0 70286-4 0 9995
2 57894 43.0021 133.4054 0001423 280.7486 79.3196 15.02540833132080
Epoch: Feb 4, 2026 • Age: 16 hours

Current Status

Altitude 559.6 km
Velocity 7.58 km/s
Sub-Earth Point -7.08°S, 99.36°W
Launch Date Sep 20, 2023
Age 2.3 years
Type internet

Technical Details

Classification Payload
Mass 730.00 kg
Dry Mass 700.00 kg
Total Mass 730.00 kg
Length 0.30 m
Diameter 4.10 m
Span 29.00 m
Shape Box + pan
Manufacturer SPXS
Bus Type Starlink V2M
Phase Status In Orbit
Owner/State SPXS/US

Large Constellations

Loading constellations...